User: anonymous   Login
Location: Unspecified
(0.0000°N, 0.0000°E)
Time: 20:20:36
(UTC+00:00)
Language:

STARLINK-30039 - Orbit

View from above orbital plane
View from above orbital plane
View from above satellite
View from above satellite

Ground track
Ground track

The orbit is defined by the following mean orbital elements,

1 57468U          26145.38267902 +.00000000 +00000-0 +12546-3 0 00009
2 57468  43.0020 263.2104 0001183 261.9448  98.1269 15.27583497    02
Epoch (UTC): 25 May 2026 09:11:03
Eccentricity: 0.0001183
inclination: 43.0020°
perigee height: 482 km
apogee height: 484 km
right ascension of ascending node: 263.2104°
argument of perigee: 261.9448°
revolutions per day: 15.27583497
mean anomaly at epoch: 98.1269°

The dashed part of the orbit path shows where the satellite is in the earth's shadow,  

DLR